Regional Weather Roundup
Issued by NWS Mobile, AL

Home | Current Version | Previous Version | Text Only | Print | Product List | Glossary On
Versions: 1 2 3 4 5 6 7 8 9 10 11 12 13 14 15 16 17 18 19 20 21 22 23 24 25 26 27
000
ASUS44 KMOB 191112
RWRMOB
REGIONAL WEATHER ROUNDUP
NATIONAL WEATHER SERVICE MOBILE AL
600 AM CDT THU OCT 19 2017

NOTE: "FAIR" INDICATES FEW OR NO CLOUDS BELOW 12,000 FEET WITH NO
      SIGNIFICANT WEATHER AND/OR OBSTRUCTIONS TO VISIBILITY.

  * THESE STATIONS ARE PART OF THE UNIVERSITY OF SOUTH ALABAMA
    MESONET AND ARE NOT UNDER NWS OR FAA QUALITY CONTROL.

ALZ061>064-191200-
COASTAL ALABAMA

CITY           SKY/WX    TMP DP  RH WIND       PRES   REMARKS
MOBILE REG APT PTCLDY    59  53  80 NE5       30.19R
BROOKLEY FIELD PTCLDY    64  57  78 N6        30.19R
USA CAMPUS*    NOT AVBL
DOG RIVER*     NOT AVBL


CITY           SKY/WX    TMP DP  RH WIND       PRES   REMARKS
GULF SHORES    CLEAR     60  58  92 NE5       30.16R

$$

ALZ051>060-191200-
INTERIOR SOUTHWEST AND SOUTH CENTRAL ALABAMA

CITY           SKY/WX    TMP DP  RH WIND       PRES   REMARKS
GREENVILLE     CLEAR     53  44  71 CALM      30.22R
EVERGREEN      CLEAR     50  47  89 CALM      30.21R
ATMORE*          N/A    N/A N/A N/A CALM        N/A
ANDALUSIA/OPP  CLEAR     55  47  74 E3        30.21R
ANDALUSIA*       N/A     55  48  76 E5        30.20R
FLORALA APT    CLEAR     55  47  74 NE5       30.23R
FLORALA*         N/A     54  48  82 CALM      30.94R

$$

FLZ001>006-191200-
WESTERN FLORIDA PANHANDLE

CITY           SKY/WX    TMP DP  RH WIND       PRES   REMARKS
PENSACOLA      CLEAR     63  56  78 NE6       30.17R
NAS PENSACOLA  MOCLDY    62  57  83 N5        30.17R
MILTON         CLEAR     55  31  39 N3        30.19R
WHTNG S FIELD  CLEAR     60  50  69 NE6       30.19R


CITY           SKY/WX    TMP DP  RH WIND       PRES   REMARKS
JAY*             N/A     54  48  82 E2        30.20R
DUKE FIELD     CLEAR     53  50  88 N3        30.18R
CRESTVIEW      CLEAR     55  49  80 CALM      30.20R
VALPARAISO     CLEAR     60  53  76 NE3       30.17R
DESTIN         CLEAR     67  58  72 E6        30.17R

$$

MSZ076-079-191200-
INTERIOR SOUTHEAST MISSISSIPPI

CITY           SKY/WX    TMP DP  RH WIND       PRES   REMARKS
LEAKESVILLE*     N/A     54  52  94 E3        30.20R
AGRICOLA*      NOT AVBL

$$

MARINE OBSERVATIONS

STATION/POSITION TIME  TEMP    WIND        PRES    WAVE
                       AIR SEA DIR/SP/G            HT/PER
                 (UTC) (F)     (DEG/KT/KT) (MB)    (FT/S)
PASCAGOULA       0900   63      40/  6/  7 1020.2
PETIT BOIS ISLND 0900   69      60/ 13/ 14 1020.8
GRAND BAY        0945   64      40/  6     1021.0F
KATRINA CUT      1030   69      70/ 15     1020.7S
CEDAR POINT      1030   69      70/ 11     1021.0R
E DAUPHIN ISLAND 1000   69      60/ 12/ 12 1020.3R
MIDDLE BAY LIGHT 1030   66      70/ 17     1021.0R
USCG MOBILE BAY  0900   63 74   20/  3/  4 1021.0
STATE DOCKS      0900   63 79              1021.0
MEAHER PARK      1030   62     340/  4     1021.7R
WEEKS BAY        0945   60                 1021.0S
FORT MORGAN      0900   68      70/ 14/ 16   N/A
12 S ORANGE BCH  1050   76 79  100/ 16/ 19 1020.1R   4/ 5
PENSACOLA BAY    0900   66 75              1020.9
64 S DAUPHIN ISL 1100   78 82   80/ 14/ 17 1019.6
67 S FORT MORGAN 1030   77      70/ 17     1019.0S

$$

SELECTED LOCATIONS ACROSS THE REGION

CITY           SKY/WX    TMP DP  RH WIND       PRES   REMARKS
NEW ORLEANS    PTCLDY    66  62  87 NE5       30.15R
GULFPORT       CLEAR     59  55  87 N5        30.16R
PASCAGOULA AP  CLEAR     58  54  86 N5        30.16R
PASCAGOULA*      N/A     52  50  93 N5          N/A
HATTIESBURG    CLEAR     49  49 100 CALM      30.21R
LAUREL         CLEAR     49  48  97 CALM      30.22R
MERIDIAN       CLEAR     47  46  97 CALM      30.23R
JACKSON        CLEAR     49  46  90 CALM      30.21R
MONTGOMERY     CLEAR     51  45  79 NE5       30.24R
TROY           CLEAR     47  46  97 CALM      30.24R
ASHFORD*         N/A     55  48  76 E5        30.20R
DOTHAN         CLEAR     53  48  83 NE5       30.25R
PANAMA CITY    CLEAR     59  56  89 N5        30.17R

$$





USA.gov is the U.S. government's official web portal to all federal, state and local government web resources and services.